Location: Roanoke
(37.2710°N, 79.9420°W)
Time: 11:56:12
(UTC-05:00)

Transit 2A - Pass Details

Date: 27 November 2019
Orbit: 602 x 957 km, 66.7° (Epoch: 11 December)

Event Time Altitude Azimuth Distance (km) Brightness Sun altitude
Rises 09:00:49 0° 172° (S) 3,249 10.1 16.9°
Reaches altitude 10° 09:03:49 10° 157° (SSE) 2,256 10.0 17.4°
Maximum altitude 09:07:36 21° 109° (ESE) 1,555 9.0 17.9°
Drops below altitude 10° 09:11:09 10° 61° (ENE) 2,106 8.5 18.4°
Sets 09:13:50 0° 45° (NE) 2,972 9.0 18.7°
